Location: Praha
(50.0830°N, 14.4670°E)
Time: 19:04:35
(UTC+02:00)

ISS - Pass Details

Date: 12 July 2021
Orbit: 419 x 421 km, 51.6° (Epoch: 02 August)

Event Time Altitude Azimuth Distance (km) Brightness Sun altitude
Rises 03:42:00 0° 286° (WNW) 2,371 -0.1 -10.3°
Reaches altitude 10° 03:44:06 10° 285° (WNW) 1,505 -1.2 -10.1°
Maximum altitude 03:47:28 84° 199° (SSW) 427 -3.8 -9.8°
Drops below altitude 10° 03:50:51 10° 110° (ESE) 1,499 -0.7 -9.4°
Sets 03:52:56 0° 110° (ESE) 2,361 0.3 -9.2°
